COOK1: Arkansas River Nr Coolidge, KS

                                SHEF ID:       COOK1     ARKANSAS R NR COOLIDGE, KS
STATION TYPE:
Regulating: Stage = 8.00, Flow = 2041

PRECIP STAGE STAGE(2) RIV-FLOW WTR-TEMP CONDUCT BAT-LOAD
in ft ft cfs F umho/cm volt
Ccp-Rev Ccp-Rev Ccp-Rev Ccp-Rev Ccp-Rev Ccp-Rev Ccp-Rev
(America/Chicago)
11/05 00:00 0.00 1.65 ---- 33 53.53 6973 12.48
11/05 01:00 0.00 1.65 ---- 33 52.56 6986 12.44
11/05 02:00 0.00 1.64 ---- 32 51.66 7004 12.41
11/05 03:00 0.00 1.64 ---- 32 50.79 7022 12.37
11/05 04:00 0.00 1.64 ---- 32 49.98 7038 12.36
11/05 05:00 0.00 1.65 ---- 33 49.42 7049 12.31
11/05 06:00 0.00 1.65 ---- 33 48.54 7058 12.30
11/05 07:00 0.00 1.65 ---- 33 48.00 7060 12.26
11/05 08:00 0.00 1.65 ---- 33 47.88 7043 12.25
11/05 09:00 0.00 1.66 ---- 33 48.24 7027 13.33
11/05 10:00 0.00 1.67 ---- 34 49.64 7015 13.78
11/05 11:00 0.00 1.68 ---- 35 51.98 7004 13.34
11/05 12:00 0.00 1.69 ---- 35 54.57 7006 14.36
11/05 13:00 0.00 1.70 ---- 36 56.93 6964 14.43
11/05 14:00 0.00 1.71 ---- 37 58.64 6899 14.37
11/05 15:00 0.00 1.71 ---- 37 59.40 6860 14.23
11/05 16:00 0.00 1.72 ---- 37 59.16 6847 14.10
11/05 17:00 0.00 1.72 ---- 37 58.03 6840 13.94
11/05 18:00 0.00 1.71 ---- 37 56.57 6827 13.41
11/05 19:00 0.00 1.71 ---- 37 55.20 6831 12.70
11/05 20:00 0.00 1.72 ---- 37 54.23 6813 12.63
11/05 21:00 0.00 1.73 ---- 38 53.60 6820 12.57
11/05 22:00 0.00 1.74 ---- 39 52.86 6829 12.53
11/05 23:00 0.00 1.74 ---- 39 52.07 6770 12.49
Data processed at Thu 06Nov2025 05:30 GMT

NOTICE: If you are parsing this page

Please convert to using our Data API. Starting January 1st, 2026 we will be migrating to: https://water.usace.army.mil with modern pages rendered in JavaScript. You will no longer be able to scrape this page! CWMSDataAPI (CDA)

Timeseries IDs (TSIDs)

TSIDs used from left to right in the data table
COOL.Precip-Inc.Total.1Hour.1Hour.Ccp-Rev
COOL.Stage.Inst.1Hour.0.Ccp-Rev
COOL.Stage-Alt.Inst.1Hour.0.Ccp-Rev
COOL.Flow.Inst.1Hour.0.Ccp-Rev
COOL.Temp-Water.Inst.1Hour.0.Ccp-Rev
COOL.Cond.Inst.1Hour.0.Ccp-Rev
COOL.Volt-Battery Load.Inst.1Hour.0.Ccp-Rev

                            

All information presented herein is the property of the government of the United States of America and may be revised or deleted at any time without prior notice. Dissemination of this information without the expressed written consent of the Public Affairs Office, Tulsa District U.S. Army Corps of Engineers is strictly prohibited. These data are gathered electronically and, as presented, have NOT undergone any form of quality control. These data are NOT guaranteed to be valid or correct.